Weather History for Rennes, France

Change the Weather History Date:

Monday, November 25, 2013

  Actual Average Record
Temperature  
Mean Temperature 43 °F -  
Max Temperature 47 °F 48 °F 59 °F (2006)
Min Temperature 39 °F 37 °F 32 °F (2005)
Degree Days  
Heating Degree Days 22    
Moisture  
Dew Point 39 °F    
Average Humidity 80    
Maximum Humidity 93    
Minimum Humidity 65    
Precipitation  
Precipitation 0.01 in - - ()
Sea Level Pressure  
Sea Level Pressure 30.56 in    
Wind  
Wind Speed 6 mph ()    
Max Wind Speed 10 mph    
Max Gust Speed -    
Visibility 6.9 miles    
Events Rain    
Averages and records for this station are not official NWS values.
T = Trace of Precipitation, MM = Missing Value Source: Averaged Metar Reports

Daily Weather History Graph

Daily Weather History Graph

Search for Another Location

Airport:

Trip Planner

Search our weather history database for the weather conditions in past years. The results will help you decide how hot, cold, wet, or windy it might be!

Date:

Astronomy

Nov. 25, 2013 Rise Set
Actual Time 8:28 AM CET 5:19 PM CET
Civil Twilight 7:53 AM CET 5:54 PM CET
Nautical Twilight 7:14 AM CET 6:33 PM CET
Astronomical Twilight 6:37 AM CET 7:10 PM CET
Moon No Moon Rise 1:21 PM CET (11/25)
Length of Visible Light 10h 01m
Length of Day
8h 51m
Waning Gibbous, 53% of the Moon is Illuminated
Nov 25
Waning Gibbous
Nov 25
Last Quarter
Dec 3
New
Dec 9
First Quarter
Dec 17
Full

Hourly Weather History & Observations

Time (CET) Temp. Windchill Dew Point Humidity Pressure Visibility Wind Dir Wind Speed Gust Speed Precip Events Conditions
12:00 AM 46.4 °F 42.9 °F 42.8 °F 87% 30.48 in 6.2 mi NNE 6.9 mph - N/A   Mostly Cloudy
12:30 AM 46.4 °F 42.9 °F 41.0 °F 81% 30.48 in 6.2 mi NNE 6.9 mph - N/A   Mostly Cloudy
1:00 AM 46 °F - 42 °F 81% 30.49 in 7 mi NNE 8.1 mph - -   Clear
1:00 AM 46.4 °F 42.4 °F 42.8 °F 87% 30.48 in 6.2 mi NNE 8.1 mph - N/A   Overcast
1:30 AM 46.4 °F 42.9 °F 41.0 °F 81% 30.48 in 6.2 mi NNE 6.9 mph - N/A   Overcast
2:00 AM 46.4 °F 42.4 °F 41.0 °F 81% 30.48 in 6.2 mi NNE 8.1 mph - N/A   Overcast
2:30 AM 44.6 °F 40.2 °F 41.0 °F 87% 30.48 in 6.2 mi NNE 8.1 mph - N/A   Unknown
3:00 AM 44.6 °F 40.2 °F 39.2 °F 81% 30.48 in 6.2 mi NNE 8.1 mph - N/A   Overcast
3:30 AM 44.6 °F 40.7 °F 39.2 °F 81% 30.51 in 6.2 mi NNE 6.9 mph - N/A   Overcast
4:00 AM 45 °F - 40 °F 75% 30.52 in 16 mi NNE 5.8 mph - -   Clear
4:00 AM 44.6 °F 41.4 °F 39.2 °F 81% 30.51 in 6.2 mi NNE 5.8 mph - N/A   Overcast
4:30 AM 44.6 °F 41.4 °F 39.2 °F 81% 30.51 in 6.2 mi NNE 5.8 mph - N/A   Overcast
5:00 AM 44.6 °F 42.2 °F 39.2 °F 81% 30.51 in 6.2 mi North 4.6 mph - N/A   Overcast
5:30 AM 44.6 °F 43.1 °F 39.2 °F 81% 30.51 in 6.2 mi NNE 3.5 mph - N/A   Overcast
6:00 AM 44.6 °F 42.2 °F 39.2 °F 81% 30.51 in 6.2 mi NNE 4.6 mph - N/A   Overcast
6:30 AM 44.6 °F 42.2 °F 39.2 °F 81% 30.51 in 6.2 mi NNE 4.6 mph - N/A   Overcast
7:00 AM 44 °F - 39 °F 78% 30.55 in 19 mi NNE 3.5 mph - -   Clear
7:00 AM 44.6 °F 43.1 °F 39.2 °F 81% 30.54 in 6.2 mi NNE 3.5 mph - N/A   Overcast
7:30 AM 42.8 °F - 39.2 °F 87% 30.54 in 6.2 mi Variable 2.3 mph - N/A   Mostly Cloudy
8:00 AM 42.8 °F 40.1 °F 39.2 °F 87% 30.54 in 6.2 mi NNE 4.6 mph - N/A   Overcast
8:30 AM 42.8 °F 40.1 °F 39.2 °F 87% 30.54 in 6.2 mi North 4.6 mph - N/A   Mostly Cloudy
9:00 AM 42.8 °F 40.1 °F 39.2 °F 87% 30.57 in 6.2 mi NE 4.6 mph - N/A   Light Drizzle
9:30 AM 44.6 °F 41.4 °F 39.2 °F 81% 30.57 in 6.2 mi NNE 5.8 mph - N/A   Overcast
10:00 AM 44 °F - 39 °F 76% 30.59 in 12 mi NNE 6.9 mph - - Rain Light Rain
10:00 AM 44.6 °F 40.2 °F 39.2 °F 81% 30.57 in 6.2 mi NNE 8.1 mph - N/A Rain Light Rain
10:30 AM 44.6 °F 39.7 °F 39.2 °F 81% 30.57 in 6.2 mi NNE 9.2 mph - N/A Rain Light Rain
11:00 AM 44.6 °F 40.2 °F 41.0 °F 87% 30.60 in 6.2 mi NNE 8.1 mph - N/A Rain Light Rain
11:30 AM 44.6 °F 39.7 °F 39.2 °F 81% 30.60 in 6.2 mi NNE 9.2 mph - N/A   Overcast
12:00 PM 46.4 °F 41.5 °F 39.2 °F 76% 30.60 in 6.2 mi NNE 10.4 mph - N/A   Overcast
12:30 PM 46.4 °F 42.4 °F 41.0 °F 81% 30.60 in 6.2 mi NNE 8.1 mph - N/A   Mostly Cloudy
1:00 PM 47 °F - 40 °F 69% 30.60 in 25 mi NNE 8.1 mph - -   Clear
1:00 PM 46.4 °F 42.4 °F 39.2 °F 76% 30.57 in 6.2 mi NNE 8.1 mph - N/A   Mostly Cloudy
1:30 PM 48.2 °F - 39.2 °F 71% 30.57 in 6.2 mi NNE 10.4 mph - N/A   Mostly Cloudy
2:00 PM 46.4 °F 41.5 °F 39.2 °F 76% 30.57 in 6.2 mi NNE 10.4 mph - N/A   Overcast
2:30 PM 46.4 °F 41.5 °F 37.4 °F 71% 30.57 in 6.2 mi NNE 10.4 mph - N/A   Overcast
3:00 PM 46.4 °F 42.9 °F 39.2 °F 76% 30.57 in 6.2 mi NNE 6.9 mph - N/A   Mostly Cloudy
3:30 PM 46.4 °F 41.9 °F 37.4 °F 71% 30.57 in 6.2 mi NE 9.2 mph - N/A   Overcast
4:00 PM 46 °F - 38 °F 65% 30.58 in 25 mi North 10.4 mph - -   Clear
4:00 PM 46.4 °F 41.5 °F 37.4 °F 71% 30.57 in 6.2 mi North 10.4 mph - N/A   Overcast
4:30 PM 46.4 °F 41.5 °F 37.4 °F 71% 30.57 in 6.2 mi NNE 10.4 mph - N/A   Overcast
5:00 PM 44.6 °F 40.7 °F 37.4 °F 76% 30.57 in 6.2 mi NNE 6.9 mph - N/A   Unknown
5:30 PM 44.6 °F 40.7 °F 37.4 °F 76% 30.57 in 6.2 mi North 6.9 mph - N/A   Overcast
6:00 PM 44.6 °F 40.7 °F 37.4 °F 76% 30.57 in 6.2 mi North 6.9 mph - N/A   Unknown
6:30 PM 42.8 °F 39.3 °F 37.4 °F 81% 30.60 in 6.2 mi North 5.8 mph - N/A   Mostly Cloudy
7:00 PM 41 °F - 37 °F 80% 30.62 in 14 mi North 5.8 mph - -   Clear
7:00 PM 41.0 °F 37.1 °F 37.4 °F 87% 30.60 in 6.2 mi North 5.8 mph - N/A   Partly Cloudy
7:30 PM 41.0 °F 37.1 °F 37.4 °F 87% 30.60 in 6.2 mi North 5.8 mph - N/A   Unknown
8:00 PM 39.2 °F 35.0 °F 35.6 °F 87% 30.63 in 6.2 mi North 5.8 mph - N/A   Partly Cloudy
8:30 PM 39.2 °F 35.0 °F 37.4 °F 93% 30.63 in 6.2 mi North 5.8 mph - N/A   Unknown
9:00 PM 41.0 °F 37.1 °F 37.4 °F 87% 30.63 in 6.2 mi North 5.8 mph - N/A   Overcast
9:30 PM 41.0 °F 38.0 °F 37.4 °F 87% 30.63 in 6.2 mi North 4.6 mph - N/A   Overcast
10:00 PM 42.8 °F 38.6 °F 37.4 °F 81% 30.63 in 6.2 mi North 6.9 mph - N/A   Overcast
10:30 PM 42.8 °F 38.0 °F 37.4 °F 81% 30.63 in 6.2 mi North 8.1 mph - N/A   Overcast
11:00 PM 42.8 °F 40.1 °F 37.4 °F 81% 30.63 in 6.2 mi NNE 4.6 mph - N/A   Overcast
11:30 PM 41.0 °F - 37.4 °F 87% 30.63 in 6.2 mi North 2.3 mph - N/A   Overcast